Regional Weather Roundup
Issued by NWS

Home | Current Version | Previous Version | Graphics & Text | Print | Product List | Glossary On
Versions: 1 2 3 4 5 6 7 8 9 10 11 12 13 14 15 16 17 18 19 20 21 22 23 24 25 26 27 28 29 30 31 32 33 34 35 36 37 38 39 40 41 42 43 44 45 46 47 48 49 50
000
ASUS43 KIND 191109
RWRIN

WEATHER ROUNDUP FOR INDIANA
NATIONAL WEATHER SERVICE INDIANAPOLIS IN
600 AM EST FRI JAN 19 2018

NOTE: "FAIR" INDICATES FEW OR NO CLOUDS BELOW 12,000 FEET WITH NO
SIGNIFICANT WEATHER AND/OR OBSTRUCTIONS TO VISIBILITY.

* - STATION DOES NOT REPORT WEATHER SUCH AS PRECIPITATION OR FOG.

+ - STATION NOT QUALITY CONTROLLED BY THE NATIONAL WEATHER SERVICE.
    USE DATA WITH CAUTION...ESPECIALLY DEWPOINT AND RELATIVE
    HUMIDITY OBSERVATIONS.

INZ001>003-010>013-019-020-191200-
NORTHWEST INDIANA

CITY           SKY/WX    TMP DP  RH WIND       PRES   REMARKS
GARY /AIRPORT/ PTCLDY    28  18  64 SW14      29.97S WCI  17
KNOX *+        FAIR      23  18  80 S9        30.00S WCI  13
LA PORTE +     FAIR      22  16  78 SW10      29.98F WCI  11
MICHIGAN CITY+ FAIR      27  18  69 S12       29.97S WCI  16
MONTICELLO +   FAIR      23  15  71 SW13      30.03S WCI  11
RENSSELAER +   FAIR      27  16  63 SW15G22   30.02S WCI  15
VALPARAISO     FAIR      23  16  74 S8        29.98S WCI  14

$$

LMZ046-743>745-191200-
SOUTHERN LAKE MICHIGAN

STATION/POSITION TIME  TEMP    WIND        PRES    WAVE
                       AIR SEA DIR/SP/G            HT
                 (UTC) (F)     (DEG/KT/KT) (MB)    (FT)
BURNS HARBOR     1040   28     200/ 15/ 21 1014.9F
MICHIGAN CITY    1040   29     190/ 17/ 21   N/A

$$

INZ004-005-014>016-021>024-191200-
NORTH CENTRAL INDIANA

CITY           SKY/WX    TMP DP  RH WIND       PRES   REMARKS
GOSHEN         FAIR      23  14  68 SW16G26   29.99S WCI  10
LOGANSPORT +   FAIR      23  14  68 SW15      30.05S WCI  10
PERU/GRISSOM   FAIR      23  15  72 SW13      30.03F WCI  11
ROCHESTER +    FAIR      27  18  69 SW9       30.03R WCI  17
SOUTH BEND     FAIR      23  16  74 SW16      29.97F WCI  10
WARSAW +       FAIR      23  14  68 SW5       30.01S WCI  17

$$

INZ006>009-017-018-025>027-191200-
NORTHEAST INDIANA

CITY           SKY/WX    TMP DP  RH WIND       PRES   REMARKS
AUBURN +       FAIR      25  14  63 SW9       30.02R WCI  15
FORT WAYNE     FAIR      24  15  68 SW13      30.04R WCI  12
HUNTINGTON +   FAIR      23  13  64 SW8       30.04R WCI  14
KENDALLVILLE + FAIR      24  15  70 SW12      29.98F WCI  12

$$

INZ028-029-035-036-043>045-051>053-191200-
WEST CENTRAL INDIANA

CITY           SKY/WX    TMP DP  RH WIND       PRES   REMARKS
CRAWFORDSVL +  FAIR      19  13  76 MISG        N/A
GREENCASTLE +  FAIR      23  12  63 SW7       30.12R WCI  15
LAFAYETTE      FAIR      23  15  71 SW10      30.06F WCI  12
TERRE HAUTE    FAIR      19  11  70 S7        30.14R WCI  10

$$

INZ030>032-037>040-046>048-054>057-064-065-191200-
CENTRAL INDIANA

CITY           SKY/WX    TMP DP  RH WIND       PRES   REMARKS
FISHERS *+     FAIR      21  16  79 SW9       30.10F WCI  11
FRANKFORT +    FAIR      25  17  71 SW12G22   30.07F WCI  14
GREENWOOD *+   FAIR      22  12  66 S9        30.12F WCI  11
INDIANAPOLIS   FAIR      21  12  68 SW9       30.11F WCI  11
-EAGLE CREEK   FAIR      22  12  65 SW8       30.10S WCI  12
MARION +       FAIR      22  14  70 SW17      30.06S WCI   8
MT COMFORT *+  FAIR      19  14  79 S9        30.10F WCI   9
SHELBYVILLE    FAIR      20  10  65 S13       30.12F WCI   7
ZIONSVILLE +   FAIR      21  12  68 SW12      30.08S WCI   9

$$

INZ033-034-041-042-049-050-058-059-191200-
EAST CENTRAL INDIANA

CITY           SKY/WX    TMP DP  RH WIND       PRES   REMARKS
MUNCIE         FAIR      24  11  57 SW15G21   30.06F WCI  11
RICHMOND +     FAIR      19  12  73 SW13      30.11S WCI   7

$$

INZ060-061-067>069-081>083-085>088-191200-
SOUTHWEST INDIANA

CITY           SKY/WX    TMP DP  RH WIND       PRES   REMARKS
EVANSVILLE     FAIR      23  14  68 SW10      30.22S WCI  12
HUNTINGBURG +  FAIR      18  12  77 S10       30.21F WCI   6
WASHINGTON +   FAIR      21  10  64 S6        30.18S WCI  13

$$

INZ062-063-066-070>080-084-089>092-191200-
SOUTH CENTRAL AND SOUTHEAST INDIANA

CITY           SKY/WX    TMP DP  RH WIND       PRES   REMARKS
BATESVILLE *+    N/A    N/A N/A N/A MISG        N/A
BEDFORD +      FAIR      21  10  63 S5        30.17S WCI  15
BLOOMINGTON    FAIR      23  11  60 SW13      30.14S WCI  11
FRENCH LICK *+ FAIR      23  10  58 SW5       30.18F WCI  17
MADISON *+     FAIR      19  12  73 S6        30.21S WCI  11
NORTH VERNON + FAIR      18  10  73 S8        30.18S WCI   7
SEYMOUR +      FAIR      23  10  58 S5        30.19S WCI  17

$$




USA.gov is the U.S. government's official web portal to all federal, state and local government web resources and services.